POPACS 3

Last updated on Sat Jul 05 2025 00:03:43 GMT+0000 (Coordinated Universal Time)

1 39270U 13055F 25185.15960616 .00008750 00000+0 21870-3 0 9990 2 39270 81.0035 244.3063 0582579 44.2162 320.4080 14.48445284588043
UTC large
Height (km)
Speed (km/s)
/
Latitude / Longitude
Inclination (degrees)
Orbital Period (minutes)
Azimuth
Elevation
Range (km)
Doppler Factor

Next 0 passes for location: London (51.5072 / 0.1276)

Sorry there are no passes over London.